Theta_e
330 331 329 329 331 330 330 332 332 332 332 332 330 330 330 329 329 329 327 323 322 321 320 320 320 320 318 318 318 318 318 319
330 329 328 326 327 327 329 330 333 332 334 333 330 328 327 326 325 321 318 318 316 317 315 315 314 314 315 315 317 319 318 318
326 327 326 325 326 327 327 328 328 332 330 330 329 326 328 322 320 321 321 319 317 319 318 315 315 313 313 317 317 317 317 316
323 325 323 322 325 325 325 325 327 328 325 323 324 326 325 321 318 317 318 316 318 317 313 312 310 307 304 306 313 314 314 314
322 323 322 322 324 324 325 326 326 323 322 323 322 324 321 319 317 313 311 314 315 312 310 310 309 308 302 303 307 311 310 310
323 321 321 321 324 320 321 322 325 321 321 319 321 321 320 318 316 316 316 315 312 310 310 310 309 306 301 301 305 310 309 310
324 323 320 319 319 319 318 320 320 319 317 318 319 321 319 317 317 316 313 311 310 310 310 310 309 308 300 300 306 309 307 308
324 320 321 318 320 322 318 318 318 317 317 317 318 319 320 318 318 317 312 310 308 308 308 309 305 309 297 298 305 307 307 305
322 320 318 318 320 320 317 316 315 316 316 316 316 318 319 320 318 315 311 309 309 308 307 308 308 307 306 297 298 309 306 305
318 317 316 318 319 319 316 315 317 318 317 315 317 318 316 316 315 312 310 310 308 307 306 305 307 309 298 298 296 297 301 307
318 319 319 317 315 315 314 316 318 316 315 313 312 315 315 316 313 310 307 309 307 305 304 304 306 307 308 298 297 296 298 305
319 318 317 317 317 317 318 318 317 315 314 313 314 314 312 314 312 312 309 309 309 305 305 305 306 307 308 309 309 311 299 302
321 319 318 318 320 320 319 319 319 316 313 313 310 309 310 310 310 311 311 313 308 309 309 308 306 307 306 298 299 306 307 302
318 318 318 316 314 318 319 317 317 319 318 312 307 307 306 310 310 309 295 295 295 295 296 301 307 297 294 293 294 293 293 293
314 313 313 316 316 316 316 316 317 317 313 309 307 305 305 309 309 309 307 301 294 293 293 294 294 293 294 294 294 293 293 296
316 314 313 315 314 313 314 315 314 314 315 303 308 307 307 307 305 302 304 307 308 308 297 297 292 292 292 293 294 297 301 300
314 315 315 313 312 311 313 314 314 315 315 313 314 314 313 309 307 308 310 309 307 306 307 301 299 294 294 294 296 303 301 301
312 312 313 312 312 313 314 314 312 313 311 302 305 308 308 310 310 307 307 306 305 305 304 303 304 303 303 303 303 303 303 302
315 314 314 311 312 313 315 313 312 309 310 311 302 312 311 309 307 306 306 305 304 303 302 297 285 301 301 300 301 301 301 300
312 312 309 309 309 311 312 313 313 312 313 312 311 309 309 307 306 305 304 303 303 302 301 298 288 300 299 298 298 298 298 298
Wind_Speed
8 9 9 10 10 11 11 11 10 10 9 10 10 10 9 8 9 10 9 10 10 10 11 12 11 10 10 11 10 10 10 10
6 5 6 7 8 8 9 8 9 8 9 9 10 10 10 10 10 10 9 9 11 11 11 11 11 10 12 10 9 10 10 9
7 6 5 6 6 5 6 7 7 7 9 10 11 11 12 10 10 11 12 12 9 13 14 13 13 11 8 11 10 11 11 10
5 5 5 5 5 4 5 6 7 8 9 8 9 12 12 10 10 10 12 11 12 15 14 14 13 10 12 14 11 11 11 11
5 5 4 4 4 5 5 7 8 8 9 8 8 10 11 11 10 9 10 11 13 13 13 13 13 11 11 12 12 12 11 11
5 5 5 5 5 6 4 5 8 8 9 7 5 9 11 10 11 11 11 11 11 11 11 11 11 9 10 10 10 12 11 12
1 5 5 4 3 3 5 6 8 7 6 5 7 9 10 10 10 10 9 10 9 9 9 10 11 10 9 8 8 9 10 10
5 6 5 5 4 5 8 7 8 9 6 8 7 7 8 10 10 9 9 8 8 8 9 9 9 9 9 9 8 7 9 7
9 7 7 6 5 6 8 7 9 7 7 7 7 7 8 8 8 8 8 8 8 8 8 8 8 7 9 11 10 4 4 5
9 10 7 6 7 8 9 10 10 8 6 5 7 6 5 6 8 7 7 7 7 6 7 5 4 4 6 6 6 6 3 3
8 9 10 9 6 9 10 7 7 7 5 5 6 5 6 5 7 7 5 5 4 4 4 3 2 2 2 1 5 3 2 4
9 11 9 8 6 5 5 5 4 3 6 6 5 6 6 4 4 4 4 4 3 4 3 2 2 1 3 3 4 1 3 6
8 9 8 7 5 5 4 3 3 5 5 3 5 3 4 5 4 3 3 2 1 2 2 1 1 1 4 6 6 6 5 4
8 7 7 5 3 4 3 1 3 5 6 5 2 4 4 5 5 5 6 6 2 3 5 5 0 2 6 7 3 4 5 1
7 6 5 3 4 3 4 3 1 4 6 5 3 3 2 5 4 3 4 4 7 8 6 6 7 9 7 6 4 8 4 1
6 5 5 5 5 5 4 5 5 6 7 6 4 3 4 4 4 2 2 2 2 3 9 8 7 7 9 8 4 5 4 3
5 5 6 4 5 6 5 5 7 7 6 5 4 3 3 5 3 3 3 4 4 4 3 4 5 6 7 9 6 5 3 3
6 5 5 5 7 5 5 5 5 6 6 6 6 4 4 4 4 4 4 4 4 4 5 5 5 2 5 5 5 5 4 4
6 6 5 4 5 4 2 3 3 4 4 4 6 4 4 4 4 4 4 4 5 5 5 6 5 5 4 4 4 4 5 5
6 6 4 3 2 3 4 4 4 5 5 5 5 5 5 4 5 5 5 4 4 4 4 5 4 4 5 6 6 6 6 5
Wind_Direction
38 37 40 29 39 42 43 40 49 60 66 69 68 66 69 73 78 75 71 75 63 59 62 61 71 65 66 66 69 70 67 63
33 47 50 41 30 30 43 47 50 57 66 72 77 72 74 75 72 68 64 67 74 75 71 69 65 65 63 65 66 68 67 61
12 17 62 16 27 39 45 56 55 63 74 73 81 80 83 73 73 79 83 77 79 84 82 71 66 62 55 70 66 61 59 59
23 40 77 45 23 46 52 56 71 75 83 83 93 97 94 88 88 85 81 75 78 72 69 72 68 62 44 46 61 66 58 52
32 64 59 64 73 63 55 79 99 94 90 88 86 94 90 86 83 78 72 74 78 75 73 71 70 67 48 53 57 65 60 51
54 86 72 53 82 69 64 85 96 90 78 60 48 85 94 95 85 82 83 85 84 86 81 74 76 68 57 63 70 67 61 54
21 106 110 97 61 60 72 89 99 90 80 69 71 92 97 102 98 93 88 95 92 89 83 81 79 68 42 35 64 67 67 62
124 111 96 66 66 108 92 75 64 61 52 82 86 87 98 99 107 107 106 101 96 93 89 87 74 78 43 36 15 56 55 54
101 99 86 69 75 89 86 77 69 73 61 73 76 80 88 99 104 112 115 109 104 95 91 77 70 48 54 33 15 35 44 52
91 100 80 65 79 88 85 83 91 77 63 43 57 64 75 103 113 116 119 117 103 99 98 95 79 52 40 45 359 3 339 344
84 94 90 82 79 95 91 88 103 120 122 117 87 82 89 105 121 125 124 126 127 121 109 102 93 35 347 304 315 342 265 268
97 99 99 110 99 72 95 118 139 150 116 125 126 122 118 122 126 139 158 159 148 152 153 123 87 11 343 336 341 340 182 223
115 110 114 129 143 135 59 36 141 125 111 138 124 133 136 125 104 102 154 110 339 177 179 176 263 320 35 350 331 332 341 36
116 122 119 95 64 63 76 11 271 231 151 128 149 161 145 131 129 125 58 42 36 333 357 349 151 277 320 310 286 48 46 358
125 111 106 113 108 71 39 17 191 182 136 144 158 153 150 123 124 143 145 108 80 75 82 48 19 339 307 266 81 73 55 281
127 111 100 90 88 69 43 66 97 113 137 152 146 139 141 148 106 107 124 169 155 120 70 57 43 26 23 38 113 154 63 24
120 111 100 102 103 78 81 88 98 106 121 130 143 116 79 89 113 123 117 94 86 77 106 134 71 66 59 49 37 72 62 34
143 125 119 113 101 92 97 109 112 108 92 85 86 112 125 127 111 103 88 76 72 65 56 33 17 16 29 33 40 29 22 18
134 133 123 109 94 89 72 97 104 107 103 112 128 133 107 102 92 80 66 68 71 62 62 51 340 356 15 19 15 18 9 6
142 123 112 94 79 94 89 118 129 132 130 124 106 100 104 98 83 70 61 63 56 48 52 75 308 46 42 38 32 26 19 10